This is the latest recevied weather packets stored in our database for station/object AD0YN. If no packets are shown the sender has not sent any weather packets the latest 10 day(s).
| Time | Temp. | Humidity | Pressure | Rain* | Wind** | Luminosity | Snow |
|---|---|---|---|---|---|---|---|
| 1778138366 | 8.33° C | 58% | 1016.3 hPa | 0 mm | - | 0 W/m² | - |
| 1778138063 | 8.33° C | 58% | 1016.4 hPa | 0 mm | - | 0 W/m² | - |
| 1778137759 | 8.89° C | 59% | 1016.7 hPa | 0 mm | - | 0 W/m² | - |
| 1778137457 | 8.89° C | 58% | 1016.5 hPa | 0 mm | - | 0 W/m² | - |
| 1778137153 | 8.89° C | 57% | 1016.6 hPa | 0 mm | - | 0 W/m² | - |
| 1778136850 | 8.89° C | 56% | 1016.8 hPa | 0 mm | - | 0 W/m² | - |
| 1778136547 | 8.89° C | 56% | 1016.8 hPa | 0 mm | - | 0 W/m² | - |
| 1778136245 | 8.89° C | 56% | 1016.4 hPa | 0 mm | - | 0 W/m² | - |
| 1778135943 | 8.89° C | 55% | 1016.7 hPa | 0 mm | - | 0 W/m² | - |
| 1778135640 | 9.44° C | 54% | 1016.7 hPa | 0 mm | - | 0 W/m² | - |
| 1778135337 | 9.44° C | 53% | 1016.6 hPa | 0 mm | - | 0 W/m² | - |
| 1778135033 | 9.44° C | 54% | 1016.9 hPa | 0 mm | - | 0 W/m² | - |
| 1778134731 | 9.44° C | 54% | 1016.7 hPa | 0 mm | - | 0 W/m² | - |
| 1778134429 | 9.44° C | 53% | 1016.9 hPa | 0 mm | - | 0 W/m² | - |
| 1778134127 | 9.44° C | 54% | 1016.8 hPa | 0 mm | - | 0 W/m² | - |
| 1778133823 | 8.89° C | 54% | 1016.8 hPa | 0 mm | - | 0 W/m² | - |
| 1778133521 | 8.89° C | 58% | 1017 hPa | 0 mm | - | 0 W/m² | - |
| 1778133221 | 8.89° C | 55% | 1017 hPa | 0 mm | - | 0 W/m² | - |
| 1778132918 | 8.89° C | 58% | 1017 hPa | 0 mm | - | 0 W/m² | - |
| 1778132614 | 8.89° C | 56% | 1017 hPa | 0 mm | - | 0 W/m² | - |
| 1778132312 | 8.89° C | 57% | 1017 hPa | 0 mm | - | 0 W/m² | - |
| 1778132010 | 8.89° C | 59% | 1016.9 hPa | 0 mm | - | 0 W/m² | - |
| 1778131708 | 8.89° C | 57% | 1016.8 hPa | 0 mm | - | 0 W/m² | - |
| 1778131404 | 8.89° C | 55% | 1017 hPa | 0 mm | - | 0 W/m² | - |
| 1778131102 | 8.89° C | 57% | 1016.9 hPa | 0 mm | - | 0 W/m² | - |
* Rain latest hour (hover to see other rain measurements)
** Current wind speed in m/s (hover to see current wind gust speed)